Regional Weather Roundup
Issued by NWS

Home | Current Version | Previous Version | Graphics & Text | Print | Product List | Glossary Off
Versions: 1 2 3 4 5 6 7 8 9 10 11 12 13 14 15 16 17 18 19 20 21 22 23 24 25 26 27 28 29 30 31 32 33 34 35 36 37 38 39 40 41 42 43 44 45 46 47 48 49 50

000
ASUS43 KLSX 230459
RWRMO

WEATHER SUMMARY FOR MISSOURI
NATIONAL WEATHER SERVICE SPRINGFIELD MO
1100 PM CST SAT NOV 22 2014

NOTE: "FAIR" INDICATES FEW OR NO CLOUDS BELOW 12,000 FEET WITH NO
       SIGNIFICANT WEATHER AND/OR OBSTRUCTIONS TO VISIBILITY.
       CURRENT SKY AND/OR WEATHER CONDITIONS ARE NOT AVAILABLE FOR
       CHILLICOTHE AND FARMINGTON.

MOZ001>031-035>038-043-044-053-054-230600-
...NORTHERN AND WESTERN MISSOURI...

CITY           SKY/WX    TMP DP  RH WIND       PRES   REMARKS
KANSAS CTY INT CLOUDY    55  51  86 S16       29.69F
KANSAS C DTWN  CLOUDY    57  51  80 S8G18     29.70F
ST JOSEPH      CLOUDY    54  51  90 S13       29.68F
CHILLICOTHE      N/A     56  50  80 S10       29.74F
KIRKSVILLE     CLOUDY    54  51  90 S14       29.76R

$$
MOZ066>068-077>081-088>096-101>105-230600-
...SOUTHWEST MISSOURI...

CITY           SKY/WX    TMP DP  RH WIND       PRES   REMARKS
SPRINGFIELD    CLEAR     53  50  89 S17       29.78F
JOPLIN         PTCLDY    56  52  86 SE9       29.73F

$$
MOZ032>034-039>042-045>050-055>058-069>072-230600-
...CENTRAL MISSOURI...

CITY           SKY/WX    TMP DP  RH WIND       PRES   REMARKS
COLUMBIA       CLOUDY    54  50  86 S17       29.80F
JEFFERSON CITY PTCLDY    52  48  86 SE6       29.82F
ROLLA          MOCLDY    52  48  86 S14G25    29.82F
SEDALIA        MOCLDY    53  49  86 S14       29.76F
WARRENSBURG    CLOUDY    52  48  87 SE8       29.73F
OSAGE BEACH    PTCLDY    54  46  76 S8        29.80F

$$
MOZ051-052-059>065-230600-
...EAST CENTRAL MISSOURI...

CITY           SKY/WX    TMP DP  RH WIND       PRES   REMARKS
ST LOUIS INTL  LGT RAIN  55  50  83 S10       29.88F
SPIRIT OF STL  LGT RAIN  54  50  86 S7        29.86F
ST CHARLES     CLOUDY    50  49  96 E7        29.87F FOG

$$
MOZ072>076-082>087-097>100-106>115-230600-
...SOUTH CENTRAL AND SOUTHEAST MISSOURI...

CITY           SKY/WX    TMP DP  RH WIND       PRES   REMARKS
CAPE GIRARDEAU PTCLDY    51  40  65 SE6       29.95F
FARMINGTON     MOCLDY    50  45  81 SE9       29.91F
POPLAR BLUFF   CLEAR     49  40  71 SE8       29.92F
WEST PLAINS    CLEAR     51  46  83 S9        29.88F

$$



USA.gov is the U.S. government's official web portal to all federal, state and local government web resources and services.